H1 CPF 2 NER 2024 11 1 9 306 01 glonass132 H2 1401201 9132 39620 2024 11 1 0 0 0 2024 11 4 23 45 0 900 1 1 0 0 0 1 H9 10 0 60615 0.00000 0 -13627844.662 17942430.882 -11976358.324 10 0 60615 900.00000 0 -12872216.140 16470863.049 -14624872.485 10 0 60615 1800.00000 0 -12137987.367 14652042.655 -16989440.708 10 0 60615 2700.00000 0 -11479593.492 12519769.776 -19024010.474 10 0 60615 3600.00000 0 -10945132.577 10119364.548 -20688901.543 10 0 60615 4500.00000 0 -10574229.857 7506015.761 -21951588.077 10 0 60615 5400.00000 0 -10396272.714 4742720.652 -22787343.631 10 0 60615 6300.00000 0 -10429091.927 1897900.224 -23179735.675 10 0 60615 7200.00000 0 -10678146.141 -957211.651 -23120959.199 10 0 60615 8100.00000 0 -11136245.358 -3751297.332 -22612001.992 10 0 60615 9000.00000 0 -11783826.442 -6415689.365 -21662637.405 10 0 60615 9900.00000 0 -12589770.268 -8886995.349 -20291243.843 10 0 60615 10800.00000 0 -13512726.924 -11109504.016 -18524453.624 10 0 60615 11700.00000 0 -14502893.612 -13037271.801 -16396637.396 10 0 60615 12600.00000 0 -15504170.250 -14635802.354 -13949233.728 10 0 60615 13500.00000 0 -16456601.362 -15883248.618 -11229936.877 10 0 60615 14400.00000 0 -17299000.229 -16771087.316 -8291758.817 10 0 60615 15300.00000 0 -17971643.199 -17304238.142 -5191984.557 10 0 60615 16200.00000 0 -18418918.839 -17500623.771 -1991042.135 10 0 60615 17100.00000 0 -18591818.452 -17390190.801 1248689.372 10 0 60615 18000.00000 0 -18450161.348 -17013434.827 4464109.009 10 0 60615 18900.00000 0 -17964459.749 -16419494.105 7592634.871 10 0 60615 19800.00000 0 -17117343.921 -15663894.537 10573431.213 10 0 60615 20700.00000 0 -15904487.153 -14806043.320 13348596.762 10 0 60615 21600.00000 0 -14334991.799 -13906578.858 15864290.461 10 0 60615 22500.00000 0 -12431220.636 -13024690.036 18071772.610 10 0 60615 23400.00000 0 -10228081.299 -12215518.561 19928341.543 10 0 60615 24300.00000 0 -7771794.513 -11527753.789 21398148.542 10 0 60615 25200.00000 0 -5118198.127 -11001520.628 22452876.508 10 0 60615 26100.00000 0 -2330658.011 -10666648.171 23072270.766 10 0 60615 27000.00000 0 522327.404 -10541390.273 23244513.467 10 0 60615 27900.00000 0 3369730.004 -10631650.109 22966435.963 10 0 60615 28800.00000 0 6140695.373 -10930739.685 22243566.492 10 0 60615 29700.00000 0 8767236.114 -11419683.040 21090013.356 10 0 60615 30600.00000 0 11186805.387 -12068049.547 19528186.510 10 0 60615 31500.00000 0 13344645.976 -12835281.968 17588363.159 10 0 60615 32400.00000 0 15195819.594 -13672463.692 15308105.519 10 0 60615 33300.00000 0 16706834.145 -14524451.564 12731541.334 10 0 60615 34200.00000 0 17856802.952 -15332285.677 9908520.149 10 0 60615 35100.00000 0 18638089.066 -16035775.980 6893660.517 10 0 60615 36000.00000 0 19056408.682 -16576158.026 3745305.340 10 0 60615 36900.00000 0 19130389.833 -16898707.048 524404.444 10 0 60615 37800.00000 0 18890604.881 -16955200.899 -2706655.041 10 0 60615 38700.00000 0 18378117.151 -16706128.239 -5885248.710 10 0 60615 39600.00000 0 17642602.196 -16122548.565 -8949722.640 10 0 60615 40500.00000 0 16740122.078 -15187524.753 -11840585.852 10 0 60615 41400.00000 0 15730645.663 -13897066.325 -14501664.504 10 0 60615 42300.00000 0 14675418.825 -12260541.783 -16881195.330 10 0 60615 43200.00000 0 13634294.990 -10300540.421 -18932836.848 10 0 60615 44100.00000 0 12663138.399 -8052186.898 -20616578.323 10 0 60615 45000.00000 0 11811409.688 -5561934.834 -21899528.259 10 0 60615 45900.00000 0 11120036.021 -2885887.539 -22756566.450 10 0 60615 46800.00000 0 10619656.232 -87713.992 -23170846.184 10 0 60615 47700.00000 0 10329315.844 2763754.596 -23134135.939 10 0 60615 48600.00000 0 10255668.006 5597148.570 -22646993.035 10 0 60615 49500.00000 0 10392715.047 8341295.337 -21718764.892 10 0 60615 50400.00000 0 10722102.516 10927952.753 -20367416.930 10 0 60615 51300.00000 0 11213954.022 13294426.318 -18619189.628 10 0 60615 52200.00000 0 11828212.040 15385960.606 -16508090.709 10 0 60615 53100.00000 0 12516428.087 17157804.540 -14075231.950 10 0 60615 54000.00000 0 13223926.172 18576863.759 -11368023.456 10 0 60615 54900.00000 0 13892247.204 19622870.729 -8439241.327 10 0 60615 55800.00000 0 14461769.722 20289023.703 -5345987.660 10 0 60615 56700.00000 0 14874394.555 20582068.391 -2148564.139 10 0 60615 57600.00000 0 15076178.217 20521820.087 1090717.477 10 0 60615 58500.00000 0 15019802.024 20140147.998 4308763.280 10 0 60615 59400.00000 0 14666771.165 19479466.571 7442938.098 10 0 60615 60300.00000 0 13989249.784 18590799.596 10432293.821 10 0 60615 61200.00000 0 12971453.945 17531500.897 13218760.115 10 0 60615 62100.00000 0 11610543.637 16362729.633 15748273.685 10 0 60615 63000.00000 0 9916976.390 15146788.139 17971824.004 10 0 60615 63900.00000 0 7914308.180 13944435.357 19846395.469 10 0 60615 64800.00000 0 5638450.491 12812289.162 21335788.605 10 0 60615 65700.00000 0 3136415.186 11800426.369 22411305.657 10 0 60615 66600.00000 0 464599.870 10950280.167 23052288.826 10 0 60615 67500.00000 0 -2313314.801 10292921.661 23246502.436 10 0 60615 68400.00000 0 -5128768.903 9847795.748 22990353.299 10 0 60615 69300.00000 0 -7910929.151 9621962.374 22288946.435 10 0 60615 70200.00000 0 -10589390.174 9609873.171 21155976.230 10 0 60615 71100.00000 0 -13096860.811 9793691.331 19613455.797 10 0 60615 72000.00000 0 -15371725.954 10144140.334 17691290.033 10 0 60615 72900.00000 0 -17360379.635 10621845.384 15426700.393 10 0 60615 73800.00000 0 -19019234.443 11179111.323 12863511.861 10 0 60615 74700.00000 0 -20316325.396 11762062.812 10051315.006 10 0 60615 75600.00000 0 -21232442.892 12313057.598 7044518.183 10 0 60615 76500.00000 0 -21761748.444 12773272.290 3901306.992 10 0 60615 77400.00000 0 -21911847.984 13085352.646 682529.981 10 0 60615 78300.00000 0 -21703319.770 13196017.414 -2549468.879 10 0 60615 79200.00000 0 -21168716.343 13058506.281 -5732049.239 10 0 60615 80100.00000 0 -20351081.869 12634768.563 -8803482.261 10 0 60615 81000.00000 0 -19302046.363 11897299.675 -11704144.349 10 0 60615 81900.00000 0 -18079576.065 10830546.738 -14377673.735 10 0 60615 82800.00000 0 -16745473.852 9431822.369 -16772067.394 10 0 60615 83700.00000 0 -15362734.187 7711686.043 -18840696.756 10 0 60615 84600.00000 0 -13992863.486 5693774.511 -20543222.135 10 0 60615 85500.00000 0 -12693278.530 3414085.785 -21846387.538 10 0 60616 0.00000 0 -11514892.554 919744.347 -22724679.728 10 0 60616 900.00000 0 -10499990.374 -1732704.509 -23160838.350 10 0 60616 1800.00000 0 -9680484.058 -4479398.585 -23146205.271 10 0 60616 2700.00000 0 -9076621.158 -7251579.079 -22680906.969 10 0 60616 3600.00000 0 -8696202.248 -9978224.120 -21773864.201 10 0 60616 4500.00000 0 -8534340.739 -12588787.459 -20442628.346 10 0 60616 5400.00000 0 -8573775.741 -15015927.933 -18713046.684 10 0 60616 6300.00000 0 -8785724.994 -17198115.464 -16618762.404 10 0 60616 7200.00000 0 -9131241.796 -19082004.142 -14200558.694 10 0 60616 8100.00000 0 -9563018.062 -20624472.562 -11505559.555 10 0 60616 9000.00000 0 -10027556.376 -21794245.495 -8586303.185 10 0 60616 9900.00000 0 -10467617.845 -22573028.641 -5499706.689 10 0 60616 10800.00000 0 -10824840.562 -22956109.085 -2305943.309 10 0 60616 11700.00000 0 -11042416.047 -22952396.865 932744.644 10 0 60616 12600.00000 0 -11067708.632 -22583907.136 4153272.457 10 0 60616 13500.00000 0 -10854705.288 -21884706.355 7292953.902 10 0 60616 14400.00000 0 -10366190.981 -20899368.823 10290730.767 10 0 60616 15300.00000 0 -9575556.713 -19681010.704 13088365.946 10 0 60616 16200.00000 0 -8468163.460 -18288986.269 15631576.204 10 0 60616 17100.00000 0 -7042204.472 -16786345.026 17871082.403 10 0 60616 18000.00000 0 -5309029.915 -15237157.890 19763557.088 10 0 60616 18900.00000 0 -3292920.708 -13703825.281 21272451.903 10 0 60616 19800.00000 0 -1030321.482 -12244479.999 22368690.049 10 0 60616 20700.00000 0 1431434.873 -10910592.963 23031211.901 10 0 60616 21600.00000 0 4035857.788 -9744880.691 23247364.944 10 0 60616 22500.00000 0 6719412.949 -8779600.248 23013132.098 10 0 60616 23400.00000 0 9413932.361 -8035300.906 22333195.498 10 0 60616 24300.00000 0 12049221.575 -7520082.608 21220835.635 10 0 60616 25200.00000 0 14555757.370 -7229390.310 19697668.506 10 0 60616 26100.00000 0 16867365.637 -7146351.222 17793226.120 10 0 60616 27000.00000 0 18923770.191 -7242639.718 15544388.272 10 0 60616 27900.00000 0 20672908.476 -7479833.065 12994675.946 10 0 60616 28800.00000 0 22072919.511 -7811201.015 10193419.121 10 0 60616 29700.00000 0 23093722.688 -8183854.399 7194813.948 10 0 60616 30600.00000 0 23718122.558 -8541163.026 4056886.326 10 0 60616 31500.00000 0 23942393.989 -8825341.801 840380.780 10 0 60616 32400.00000 0 23776323.325 -8980096.790 -2392404.915 10 0 60616 33300.00000 0 23242703.489 -8953220.122 -5578817.680 10 0 60616 34200.00000 0 22376303.523 -8699024.318 -8657057.039 10 0 60616 35100.00000 0 21222354.942 -8180512.982 -11567370.019 10 0 60616 36000.00000 0 19834617.426 -7371195.333 -14253210.031 10 0 60616 36900.00000 0 18273104.097 -6256466.649 -16662337.179 10 0 60616 37800.00000 0 16601561.063 -4834494.520 -18747838.439 10 0 60616 38700.00000 0 14884806.372 -3116571.271 -20469047.511 10 0 60616 39600.00000 0 13186039.721 -1126915.208 -21792345.911 10 0 60616 40500.00000 0 11564235.722 1098073.677 -22691829.126 10 0 60616 41400.00000 0 10071730.235 3511074.903 -23149824.094 10 0 60616 42300.00000 0 8752101.458 6055575.123 -23157247.087 10 0 60616 43200.00000 0 7638435.208 8667991.856 -22713794.131 10 0 60616 44100.00000 0 6752047.793 11280106.023 -21827959.256 10 0 60616 45000.00000 0 6101720.655 13821702.522 -20516879.300 10 0 60616 45900.00000 0 5683479.355 16223308.873 -18806007.410 10 0 60616 46800.00000 0 5480926.269 18418917.385 -16728620.901 10 0 60616 47700.00000 0 5466112.814 20348576.435 -14325172.620 10 0 60616 48600.00000 0 5600913.748 21960741.749 -11642498.336 10 0 60616 49500.00000 0 5838844.531 23214288.416 -8732895.862 10 0 60616 50400.00000 0 6127243.493 24080098.654 -5653094.504 10 0 60616 51300.00000 0 6409724.795 24542158.435 -2463135.987 10 0 60616 52200.00000 0 6628796.459 24598117.050 774810.072 10 0 60616 53100.00000 0 6728530.666 24259286.807 3997671.508 10 0 60616 54000.00000 0 6657171.428 23550084.061 7142714.370 10 0 60616 54900.00000 0 6369567.733 22506936.703 10148773.571 10 0 60616 55800.00000 0 5829328.052 21176705.955 12957448.277 10 0 60616 56700.00000 0 5010604.461 19614690.776 15514238.107 10 0 60616 57600.00000 0 3899430.829 17882300.505 17769597.819 10 0 60616 58500.00000 0 2494558.778 16044494.875 19679890.297 10 0 60616 59400.00000 0 807756.671 14167099.649 21208220.151 10 0 60616 60300.00000 0 -1136440.474 12314110.496 22325133.018 10 0 60616 61200.00000 0 -3301519.204 10545097.484 23009168.553 10 0 60616 62100.00000 0 -5640280.813 8912817.507 23247258.061 10 0 60616 63000.00000 0 -8096585.661 7461132.671 23034960.776 10 0 60616 63900.00000 0 -10607476.417 6223319.455 22376535.661 10 0 60616 64800.00000 0 -13105592.809 5220836.952 21284848.506 10 0 60616 65700.00000 0 -15521778.808 4462603.353 19781116.865 10 0 60616 66600.00000 0 -17787775.419 3944808.894 17894498.032 10 0 60616 67500.00000 0 -19838888.948 3651271.449 15661527.865 10 0 60616 68400.00000 0 -21616525.536 3554318.743 13125420.690 10 0 60616 69300.00000 0 -23070488.112 3616159.604 10335242.954 10 0 60616 70200.00000 0 -24160941.441 3790686.571 7344975.490 10 0 60616 71100.00000 0 -24859964.286 4025634.378 4212481.298 10 0 60616 72000.00000 0 -25152624.400 4265004.016 998397.681 10 0 60616 72900.00000 0 -25037531.473 4451650.841 -2235026.907 10 0 60616 73800.00000 0 -24526844.516 4529928.141 -5425129.678 10 0 60616 74700.00000 0 -23645732.623 4448274.875 -8510041.419 10 0 60616 75600.00000 0 -22431310.706 4161638.262 -11429882.520 10 0 60616 76500.00000 0 -20931093.648 3633628.371 -14127924.105 10 0 60616 77400.00000 0 -19201032.500 2838312.725 -16551691.697 10 0 60616 78300.00000 0 -17303213.953 1761573.638 -18653989.774 10 0 60616 79200.00000 0 -15303318.582 401969.049 -20393826.971 10 0 60616 80100.00000 0 -13267943.683 -1228941.732 -21737223.402 10 0 60616 81000.00000 0 -11261902.472 -3106823.653 -22657883.790 10 0 60616 81900.00000 0 -9345612.587 -5195336.078 -23137722.574 10 0 60616 82800.00000 0 -7572683.426 -7447417.620 -23167229.889 10 0 60616 83700.00000 0 -5987803.657 -9807034.007 -22745670.391 10 0 60616 84600.00000 0 -4625017.810 -12211317.555 -21881110.066 10 0 60616 85500.00000 0 -3506464.628 -14593009.879 -20590269.553 10 0 60617 0.00000 0 -2641630.462 -16883106.088 -18898206.109 10 0 60617 900.00000 0 -2027148.723 -19013591.083 -16837828.738 10 0 60617 1800.00000 0 -1647154.664 -20920149.943 -14449257.828 10 0 60617 2700.00000 0 -1474178.410 -22544742.185 -11779038.613 10 0 60617 3600.00000 0 -1470538.723 -23837927.976 -8879226.211 10 0 60617 4500.00000 0 -1590176.690 -24760849.018 -5806359.882 10 0 60617 5400.00000 0 -1780850.179 -25286780.019 -2620347.660 10 0 60617 6300.00000 0 -1986594.159 -25402185.247 616715.623 10 0 60617 7200.00000 0 -2150340.678 -25107235.891 3841772.358 10 0 60617 8100.00000 0 -2216585.532 -24415767.150 6992042.827 10 0 60617 9000.00000 0 -2133986.920 -23354678.037 10006256.980 10 0 60617 9900.00000 0 -1857784.721 -21962800.647 12825852.129 10 0 60617 10800.00000 0 -1351937.110 -20289288.162 15396112.556 10 0 60617 11700.00000 0 -590883.818 -18391590.970 17667228.640 10 0 60617 12600.00000 0 439138.386 -16333107.298 19595255.181 10 0 60617 13500.00000 0 1739283.032 -14180607.798 21142951.147 10 0 60617 14400.00000 0 3297817.774 -12001542.314 22280485.778 10 0 60617 15300.00000 0 5090395.705 -9861341.180 22985998.903 10 0 60617 16200.00000 0 7080862.388 -7820822.771 23246006.280 10 0 60617 17100.00000 0 9222564.729 -5933813.917 23055643.819 10 0 60617 18000.00000 0 11460107.261 -4245080.393 22418747.408 10 0 60617 18900.00000 0 13731483.274 -2788651.384 21347768.000 10 0 60617 19800.00000 0 15970493.072 -1586605.364 19863524.336 10 0 60617 20700.00000 0 18109350.039 -648365.720 17994798.404 10 0 60617 21600.00000 0 20081367.601 29466.490 15777781.297 10 0 60617 22500.00000 0 21823616.896 462737.271 13255379.598 10 0 60617 23400.00000 0 23279445.972 678838.692 10476394.859 10 0 60617 24300.00000 0 24400756.818 715320.498 7494590.909 10 0 60617 25200.00000 0 25149946.218 618072.745 4367665.842 10 0 60617 26100.00000 0 25501429.877 439155.590 1156147.415 10 0 60617 27000.00000 0 25442686.182 234367.175 -2077767.845 10 0 60617 27900.00000 0 24974775.530 60651.560 -5271410.256 10 0 60617 28800.00000 0 24112312.647 -26544.309 -8362844.793 10 0 60617 29700.00000 0 22882891.940 24146.801 -11292068.143 10 0 60617 30600.00000 0 21325988.579 257599.523 -14002172.008 10 0 60617 31500.00000 0 19491379.912 710055.300 -16440450.031 10 0 60617 32400.00000 0 17437151.924 1407345.586 -18559426.704 10 0 60617 33300.00000 0 15227372.918 2363555.442 -20317787.881 10 0 60617 34200.00000 0 12929530.770 3580185.888 -21681194.306 10 0 60617 35100.00000 0 10611840.196 5045852.612 -22622961.713 10 0 60617 36000.00000 0 8340532.194 6736536.191 -23124593.515 10 0 60617 36900.00000 0 6177238.851 8616375.763 -23176154.838 10 0 60617 37800.00000 0 4176582.950 10638975.109 -22776479.718 10 0 60617 38700.00000 0 2384073.410 12749168.296 -21933206.426 10 0 60617 39600.00000 0 834394.992 14885172.260 -20662639.263 10 0 60617 40500.00000 0 -449835.878 16981037.017 -18989438.660 10 0 60617 41400.00000 0 -1458796.920 18969291.097 -16946144.858 10 0 60617 42300.00000 0 -2195637.128 20783670.993 -14572544.007 10 0 60617 43200.00000 0 -2676098.376 22361819.457 -11914888.868 10 0 60617 44100.00000 0 -2927598.376 23647838.384 -9024989.541 10 0 60617 45000.00000 0 -2987815.082 24594587.912 -5959192.582 10 0 60617 45900.00000 0 -2902834.056 25165634.112 -2777269.403 10 0 60617 46800.00000 0 -2724939.189 25336762.586 458763.098 10 0 60617 47700.00000 0 -2510142.439 25096993.960 3685865.133 10 0 60617 48600.00000 0 -2315559.325 24449058.705 6841214.528 10 0 60617 49500.00000 0 -2196743.278 23409311.970 9863439.528 10 0 60617 50400.00000 0 -2205093.343 22007093.138 12693818.735 10 0 60617 51300.00000 0 -2385446.068 20283558.390 15277424.055 10 0 60617 52200.00000 0 -2773954.023 18290036.834 17564184.208 10 0 60617 53100.00000 0 -3396340.690 16085980.521 19509848.365 10 0 60617 54000.00000 0 -4266604.984 13736595.312 21076831.994 10 0 60617 54900.00000 0 -5386229.375 11310252.245 22234929.745 10 0 60617 55800.00000 0 -6743924.155 8875787.527 22961883.040 10 0 60617 56700.00000 0 -8315917.906 6499803.082 23243793.086 10 0 60617 57600.00000 0 -10066781.549 4244078.819 23075372.998 10 0 60617 58500.00000 0 -11950751.366 2163202.526 22460035.604 10 0 60617 59400.00000 0 -13913496.032 302513.785 21409816.489 10 0 60617 60300.00000 0 -15894254.605 -1303554.984 19945134.495 10 0 60617 61200.00000 0 -17828257.399 -2632673.690 18094394.671 10 0 60617 62100.00000 0 -19649330.139 -3675298.444 15893441.200 10 0 60617 63000.00000 0 -21292574.333 -4434817.524 13384870.337 10 0 60617 63900.00000 0 -22697013.516 -4927154.793 10617215.777 10 0 60617 64800.00000 0 -23808096.231 -5179848.157 7644021.131 10 0 60617 65700.00000 0 -24579952.231 -5230642.139 4522816.202 10 0 60617 66600.00000 0 -24977308.152 -5125653.735 1314015.743 10 0 60617 67500.00000 0 -24976982.643 -4917188.391 -1920239.091 10 0 60617 68400.00000 0 -24568898.002 -4661297.643 -5117275.105 10 0 60617 69300.00000 0 -23756565.076 -4415180.916 -8215094.735 10 0 60617 70200.00000 0 -22557019.894 -4234540.799 -11153574.082 10 0 60617 71100.00000 0 -21000213.164 -4171003.371 -13875628.338 10 0 60617 72000.00000 0 -19127876.518 -4269712.827 -16328321.914 10 0 60617 72900.00000 0 -16991911.269 -4567202.707 -18463901.601 10 0 60617 73800.00000 0 -14652365.480 -5089634.753 -20240732.306 10 0 60617 74700.00000 0 -12175082.522 -5851481.310 -21624116.707 10 0 60617 75600.00000 0 -9629118.294 -6854708.732 -22586982.239 10 0 60617 76500.00000 0 -7084034.127 -8088498.430 -23110421.347 10 0 60617 77400.00000 0 -4607178.000 -9529519.528 -23184073.588 10 0 60617 78300.00000 0 -2261067.386 -11142743.884 -22806341.241 10 0 60617 79200.00000 0 -100983.096 -12882771.231 -21984433.225 10 0 60617 80100.00000 0 1827125.107 -14695610.304 -20734235.472 10 0 60617 81000.00000 0 3488333.286 -16520842.256 -19080009.406 10 0 60617 81900.00000 0 4859967.446 -18294076.033 -17053923.627 10 0 60617 82800.00000 0 5932305.688 -19949592.470 -14695427.461 10 0 60617 83700.00000 0 6708729.365 -21423065.439 -12050478.413 10 0 60617 84600.00000 0 7205317.682 -22654244.675 -9170638.771 10 0 60617 85500.00000 0 7449904.059 -23589486.198 -6112059.629 10 0 60618 0.00000 0 7480635.720 -24184022.539 -2934373.397 10 0 60618 900.00000 0 7344099.343 -24403876.382 300484.069 10 0 60618 1800.00000 0 7093094.224 -24227335.494 3529492.917 10 0 60618 2700.00000 0 6784149.499 -23645927.592 6689790.730 10 0 60618 3600.00000 0 6474892.564 -22664853.384 9719906.090 10 0 60618 4500.00000 0 6221381.999 -21302860.604 12560960.719 10 0 60618 5400.00000 0 6075519.205 -19591565.268 15157815.761 10 0 60618 6300.00000 0 6082649.081 -17574249.907 17460139.663 10 0 60618 7200.00000 0 6279451.383 -15304190.416 19423377.084 10 0 60618 8100.00000 0 6692211.504 -12842582.681 21009600.839 10 0 60618 9000.00000 0 7335542.907 -10256156.303 22188231.529 10 0 60618 9900.00000 0 8211614.063 -7614575.240 22936612.421 10 0 60618 10800.00000 0 9309911.421 -4987733.268 23240430.145 10 0 60618 11700.00000 0 10607547.536 -2443055.749 23093974.722 10 0 60618 12600.00000 0 12070100.877 -42918.372 22500235.405 10 0 60618 13500.00000 0 13652952.026 2157711.956 21470831.700 10 0 60618 14400.00000 0 15303060.681 4113318.355 20025781.680 10 0 60618 15300.00000 0 16961109.928 5789474.944 18193112.446 10 0 60618 16200.00000 0 18563929.243 7164021.635 16008320.131 10 0 60618 17100.00000 0 20047096.342 8227725.957 13513689.382 10 0 60618 18000.00000 0 21347610.506 8984406.007 10757484.609 10 0 60618 18900.00000 0 22406526.928 9450510.690 7793027.588 10 0 60618 19800.00000 0 23171442.952 9654175.556 4677678.025 10 0 60618 20700.00000 0 23598732.822 9633794.160 1471735.668 10 0 60618 21600.00000 0 23655437.572 9436164.855 -1762715.892 10 0 60618 22500.00000 0 23320730.602 9114290.622 -4963002.269 10 0 60618 23400.00000 0 22586896.700 8724924.156 -8067065.754 10 0 60618 24300.00000 0 21459782.255 8325961.234 -11014664.271 10 0 60618 25200.00000 0 19958696.139 7973792.048 -13748538.845 10 0 60618 26100.00000 0 18115763.572 7720722.302 -16215526.891 10 0 60618 27000.00000 0 15974758.033 7612573.235 -18367599.593 10 0 60618 27900.00000 0 13589458.121 7686562.632 -20162802.856 10 0 60618 28800.00000 0 11021596.269 7969557.372 -21566083.070 10 0 60618 29700.00000 0 8338483.469 8476772.713 -22549980.990 10 0 60618 30600.00000 0 5610407.925 9210974.937 -23095179.511 10 0 60618 31500.00000 0 2907915.382 10162222.912 -23190893.795 10 0 60618 32400.00000 0 299084.105 11308161.424 -22835095.229 10 0 60618 33300.00000 0 -2153091.975 12614855.823 -22034563.868 10 0 60618 34200.00000 0 -4393102.599 14038134.411 -20804767.331 10 0 60618 35100.00000 0 -6375002.591 15525383.287 -19169567.626 10 0 60618 36000.00000 0 -8064088.097 17017718.784 -17160760.832 10 0 60618 36900.00000 0 -9438097.382 18452446.175 -14817458.125 10 0 60618 37800.00000 0 -10487886.044 19765700.707 -12185320.011 10 0 60618 38700.00000 0 -11217548.836 20895158.829 -9315658.879 10 0 60618 39600.00000 0 -11643983.982 21782704.166 -6264427.988 10 0 60618 40500.00000 0 -11795919.757 22376934.452 -3091117.551 10 0 60618 41400.00000 0 -11712446.294 22635402.403 142419.255 10 0 60618 42300.00000 0 -11441116.722 22526494.888 3373185.986 10 0 60618 43200.00000 0 -11035700.259 22030870.439 6538282.973 10 0 60618 44100.00000 0 -10553684.503 21142394.193 9576142.142 10 0 60618 45000.00000 0 -10053634.664 19868531.102 12427731.320 10 0 60618 45900.00000 0 -9592523.033 18230181.472 15037703.795 10 0 60618 46800.00000 0 -9223142.693 16260966.653 17355470.512 10 0 60618 47700.00000 0 -8991715.205 14005995.893 19336174.209 10 0 60618 48600.00000 0 -8935793.124 11520166.977 20941547.395 10 0 60618 49500.00000 0 -9082545.118 8866072.404 22140638.684 10 0 60618 50400.00000 0 -9447494.856 6111598.805 22910394.907 10 0 60618 51300.00000 0 -10033765.487 3327319.385 23236089.430 10 0 60618 52200.00000 0 -10831860.232 583787.053 23111590.046 10 0 60618 53100.00000 0 -11819987.265 -2051160.595 22539462.804 10 0 60618 54000.00000 0 -12964914.592 -4514974.355 21530910.967 10 0 60618 54900.00000 0 -14223318.928 -6752739.952 20105551.133 10 0 60618 55800.00000 0 -15543572.310 -8719202.894 18291031.198 10 0 60618 56700.00000 0 -16867892.387 -10380389.914 16122497.478 10 0 60618 57600.00000 0 -18134767.395 -11714761.749 13641920.768 10 0 60618 58500.00000 0 -19281555.507 -12713851.095 10897293.558 10 0 60618 59400.00000 0 -20247150.950 -13382360.619 7941712.831 10 0 60618 60300.00000 0 -20974606.294 -13737717.889 4832365.007 10 0 60618 61200.00000 0 -21413601.746 -13809106.386 1629431.485 10 0 60618 62100.00000 0 -21522658.310 -13636013.322 -1605065.129 10 0 60618 63000.00000 0 -21271001.816 -13266355.017 -4808452.711 10 0 60618 63900.00000 0 -20639998.938 -12754258.248 -7918616.841 10 0 60618 64800.00000 0 -19624103.806 -12157590.464 -10875200.626 10 0 60618 65700.00000 0 -18231273.861 -11535342.501 -13620774.155 10 0 60618 66600.00000 0 -16482835.583 -10944973.873 -16101950.869 10 0 60618 67500.00000 0 -14412803.541 -10439832.616 -18270429.062 10 0 60618 68400.00000 0 -12066679.038 -10066758.840 -20083937.943 10 0 60618 69300.00000 0 -9499776.437 -9863973.777 -21507069.402 10 0 60618 70200.00000 0 -6775145.153 -9859344.370 -22511978.687 10 0 60618 71100.00000 0 -3961172.386 -10069097.902 -23078939.659 10 0 60618 72000.00000 0 -1128965.412 -10497042.416 -23196742.924 10 0 60618 72900.00000 0 1650378.292 -11134327.389 -22862928.191 10 0 60618 73800.00000 0 4308499.690 -11959756.416 -22083845.292 10 0 60618 74700.00000 0 6782391.843 -12940640.140 -20874541.698 10 0 60618 75600.00000 0 9016789.368 -14034154.643 -19258477.765 10 0 60618 76500.00000 0 10966233.626 -15189148.757 -17267074.502 10 0 60618 77400.00000 0 12596726.975 -16348324.328 -14939102.126 10 0 60618 78300.00000 0 13886906.758 -17450697.144 -12319921.142 10 0 60618 79200.00000 0 14828690.047 -18434233.927 -9460590.886 10 0 60618 80100.00000 0 15427362.683 -19238552.880 -6416863.525 10 0 60618 81000.00000 0 15701110.011 -19807572.344 -3248084.097 10 0 60618 81900.00000 0 15680010.675 -20091994.203 -16019.285 10 0 60618 82800.00000 0 15404537.897 -20051515.804 3216360.696 10 0 60618 83700.00000 0 14923633.725 -19656675.880 6386121.820 10 0 60618 84600.00000 0 14292439.971 -18890255.917 9431601.967 10 0 60618 85500.00000 0 13569783.846 -17748177.628 12293617.335 99